Time,TemperatureF,DewpointF,PressureIn,WindDirection,WindDirectionDegrees,WindSpeedMPH,WindSpeedGustMPH,Humidity,HourlyPrecipIn,Conditions,Clouds,dailyrainin,SolarRadiationWatts/m^2,SoftwareType,DateUTC
2013-10-21 00:01:00,47.6,39.7,29.95,South,178,0.0,1.0,74,0.00,,---,0.00,0.00,VWS V14.01,2013-10-21 04:01:00,
2013-10-21 00:02:00,47.6,40.1,29.95,South,178,0.0,1.0,75,0.00,,---,0.00,0.00,VWS V14.01,2013-10-21 04:02:00,
2013-10-21 00:07:00,47.5,40.0,29.95,South,178,0.0,0.0,75,0.00,,---,0.00,0.00,VWS V14.01,2013-10-21 04:07:00,
2013-10-21 00:12:00,47.4,39.9,29.95,South,178,0.0,1.0,75,0.00,,---,0.00,0.00,VWS V14.01,2013-10-21 04:12:00,
2013-10-21 00:17:00,47.3,39.8,29.94,South,178,1.0,1.0,75,0.00,,---,0.00,0.00,VWS V14.01,2013-10-21 04:17:00,
2013-10-21 00:23:00,47.1,39.6,29.94,South,178,0.0,1.0,75,0.00,,---,0.00,0.00,VWS V14.01,2013-10-21 04:23:00,
2013-10-21 00:28:00,47.1,39.9,29.94,South,178,3.0,4.0,76,0.00,,---,0.00,0.00,VWS V14.01,2013-10-21 04:28:00,
2013-10-21 00:33:00,47.0,39.8,29.94,South,178,0.0,0.0,76,0.00,,---,0.00,0.00,VWS V14.01,2013-10-21 04:33:00,
2013-10-21 00:38:00,47.0,39.8,29.94,South,178,0.0,0.0,76,0.00,,---,0.00,0.00,VWS V14.01,2013-10-21 04:38:00,
2013-10-21 00:43:00,46.9,39.7,29.94,South,178,2.0,2.0,76,0.00,,---,0.00,0.00,VWS V14.01,2013-10-21 04:43:00,
2013-10-21 00:48:00,46.9,39.7,29.94,South,178,0.0,0.0,76,0.00,,---,0.00,0.00,VWS V14.01,2013-10-21 04:48:00,
2013-10-21 00:53:00,46.8,39.7,29.94,South,178,0.0,0.0,76,0.00,,---,0.00,0.00,VWS V14.01,2013-10-21 04:53:00,
2013-10-21 00:58:00,46.8,39.7,29.94,South,178,0.0,1.0,76,0.00,,---,0.00,0.00,VWS V14.01,2013-10-21 04:58:00,
2013-10-21 01:03:00,46.7,39.5,29.94,South,178,0.0,1.0,76,0.00,,---,0.00,0.00,VWS V14.01,2013-10-21 05:03:00,
2013-10-21 01:08:00,46.5,39.7,29.93,South,178,1.0,2.0,77,0.00,,---,0.00,0.00,VWS V14.01,2013-10-21 05:08:00,
2013-10-21 01:13:00,46.4,39.6,29.94,South,178,0.0,1.0,77,0.00,,---,0.00,0.00,VWS V14.01,2013-10-21 05:13:00,
2013-10-21 01:18:00,46.3,39.5,29.94,South,178,0.0,1.0,77,0.00,,---,0.00,0.00,VWS V14.01,2013-10-21 05:18:00,
2013-10-21 01:23:00,46.3,39.2,29.94,South,178,0.0,2.0,76,0.00,,---,0.00,0.00,VWS V14.01,2013-10-21 05:23:00,
2013-10-21 01:28:00,46.2,39.4,29.94,South,178,0.0,1.0,77,0.00,,---,0.00,0.00,VWS V14.01,2013-10-21 05:28:00,
2013-10-21 01:33:00,46.0,39.2,29.94,South,178,0.0,0.0,77,0.00,,---,0.00,0.00,VWS V14.01,2013-10-21 05:33:00,
2013-10-21 01:38:00,45.9,39.1,29.94,South,178,0.0,0.0,77,0.00,,---,0.00,0.00,VWS V14.01,2013-10-21 05:38:00,
2013-10-21 01:43:00,45.7,39.2,29.94,South,178,0.0,0.0,78,0.00,,---,0.00,0.00,VWS V14.01,2013-10-21 05:43:00,
2013-10-21 01:48:00,45.5,39.0,29.94,South,178,0.0,0.0,78,0.00,,---,0.00,0.00,VWS V14.01,2013-10-21 05:48:00,
2013-10-21 01:53:00,45.3,38.9,29.94,South,178,0.0,0.0,78,0.00,,---,0.00,0.00,VWS V14.01,2013-10-21 05:53:00,
2013-10-21 01:58:00,45.1,38.7,29.94,South,178,0.0,1.0,78,0.00,,---,0.00,0.00,VWS V14.01,2013-10-21 05:58:00,
2013-10-21 02:03:00,45.0,38.9,29.94,South,178,0.0,1.0,79,0.00,,---,0.00,0.00,VWS V14.01,2013-10-21 06:03:00,
2013-10-21 02:08:00,44.8,38.7,29.94,South,178,0.0,0.0,79,0.00,,---,0.00,0.00,VWS V14.01,2013-10-21 06:08:00,
2013-10-21 02:13:00,44.7,38.9,29.94,South,178,1.0,1.0,80,0.00,,---,0.00,0.00,VWS V14.01,2013-10-21 06:13:00,
2013-10-21 02:18:00,44.6,38.8,29.94,South,178,0.0,0.0,80,0.00,,---,0.00,0.00,VWS V14.01,2013-10-21 06:18:00,
2013-10-21 02:23:00,44.5,38.7,29.94,South,178,0.0,0.0,80,0.00,,---,0.00,0.00,VWS V14.01,2013-10-21 06:23:00,
2013-10-21 02:28:00,44.4,38.6,29.95,South,178,0.0,0.0,80,0.00,,---,0.00,0.00,VWS V14.01,2013-10-21 06:28:00,
2013-10-21 02:33:00,44.3,38.5,29.95,South,178,0.0,0.0,80,0.00,,---,0.00,0.00,VWS V14.01,2013-10-21 06:33:00,
2013-10-21 02:38:00,44.2,38.8,29.95,South,178,0.0,0.0,81,0.00,,---,0.00,0.00,VWS V14.01,2013-10-21 06:38:00,
2013-10-21 02:43:00,44.1,38.7,29.95,South,178,0.0,0.0,81,0.00,,---,0.00,0.00,VWS V14.01,2013-10-21 06:43:00,
2013-10-21 02:48:00,44.0,38.5,29.95,South,178,0.0,0.0,81,0.00,,---,0.00,0.00,VWS V14.01,2013-10-21 06:48:00,
2013-10-21 02:53:00,44.0,38.5,29.95,South,178,0.0,0.0,81,0.00,,---,0.00,0.00,VWS V14.01,2013-10-21 06:53:00,
2013-10-21 02:58:00,43.9,38.5,29.95,South,178,0.0,0.0,81,0.00,,---,0.00,0.00,VWS V14.01,2013-10-21 06:58:00,
2013-10-21 03:03:00,43.7,38.3,29.95,South,178,0.0,0.0,81,0.00,,---,0.00,0.00,VWS V14.01,2013-10-21 07:03:00,
2013-10-21 03:08:00,43.4,38.3,29.95,South,178,0.0,0.0,82,0.00,,---,0.00,0.00,VWS V14.01,2013-10-21 07:08:00,
2013-10-21 03:13:00,43.2,38.1,29.95,South,178,0.0,0.0,82,0.00,,---,0.00,0.00,VWS V14.01,2013-10-21 07:13:00,
2013-10-21 03:18:00,43.0,38.2,29.95,South,178,0.0,0.0,83,0.00,,---,0.00,0.00,VWS V14.01,2013-10-21 07:18:00,
2013-10-21 03:23:00,42.8,38.0,29.95,South,178,1.0,1.0,83,0.00,,---,0.00,0.00,VWS V14.01,2013-10-21 07:23:00,
2013-10-21 03:28:00,42.7,38.2,29.95,South,178,0.0,0.0,84,0.00,,---,0.00,0.00,VWS V14.01,2013-10-21 07:28:00,
2013-10-21 03:33:00,42.6,38.4,29.95,South,178,0.0,0.0,85,0.00,,---,0.00,0.00,VWS V14.01,2013-10-21 07:33:00,
2013-10-21 03:38:00,42.7,38.2,29.95,South,178,0.0,0.0,84,0.00,,---,0.00,0.00,VWS V14.01,2013-10-21 07:38:00,
2013-10-21 03:43:00,42.8,38.3,29.95,South,178,0.0,0.0,84,0.00,,---,0.00,0.00,VWS V14.01,2013-10-21 07:43:00,
2013-10-21 03:48:00,42.8,38.3,29.95,South,178,0.0,0.0,84,0.00,,---,0.00,0.00,VWS V14.01,2013-10-21 07:48:00,
2013-10-21 03:53:00,42.8,38.3,29.95,South,178,0.0,1.0,84,0.00,,---,0.00,0.00,VWS V14.01,2013-10-21 07:53:00,
2013-10-21 03:58:00,42.8,38.3,29.95,South,178,0.0,0.0,84,0.00,,---,0.00,0.00,VWS V14.01,2013-10-21 07:58:00,
2013-10-21 04:03:00,42.8,38.3,29.95,South,178,0.0,1.0,84,0.00,,---,0.00,0.00,VWS V14.01,2013-10-21 08:03:00,
2013-10-21 04:08:00,42.7,38.2,29.95,South,178,0.0,1.0,84,0.00,,---,0.00,0.00,VWS V14.01,2013-10-21 08:08:00,
2013-10-21 04:13:00,42.7,38.2,29.95,South,178,0.0,2.0,84,0.00,,---,0.00,0.00,VWS V14.01,2013-10-21 08:13:00,
2013-10-21 04:18:00,42.9,38.4,29.95,South,178,0.0,4.0,84,0.00,,---,0.00,0.00,VWS V14.01,2013-10-21 08:18:00,
2013-10-21 04:23:00,43.0,38.5,29.95,South,178,0.0,1.0,84,0.00,,---,0.00,0.00,VWS V14.01,2013-10-21 08:23:00,
2013-10-21 04:28:00,43.2,38.7,29.95,South,178,0.0,1.0,84,0.00,,---,0.00,0.00,VWS V14.01,2013-10-21 08:28:00,
2013-10-21 04:33:00,43.4,38.9,29.95,South,178,0.0,4.0,84,0.00,,---,0.00,0.00,VWS V14.01,2013-10-21 08:33:00,
2013-10-21 04:38:00,43.6,38.8,29.95,South,178,0.0,2.0,83,0.00,,---,0.00,0.00,VWS V14.01,2013-10-21 08:38:00,
2013-10-21 04:43:00,43.7,38.9,29.95,South,178,0.0,1.0,83,0.00,,---,0.00,0.00,VWS V14.01,2013-10-21 08:43:00,
2013-10-21 04:48:00,43.7,38.6,29.95,South,178,0.0,4.0,82,0.00,,---,0.00,0.00,VWS V14.01,2013-10-21 08:48:00,
2013-10-21 04:53:00,43.7,38.6,29.95,South,178,0.0,4.0,82,0.00,,---,0.00,0.00,VWS V14.01,2013-10-21 08:53:00,
2013-10-21 04:58:00,43.6,38.2,29.95,South,178,0.0,2.0,81,0.00,,---,0.00,0.00,VWS V14.01,2013-10-21 08:58:00,
2013-10-21 05:03:00,43.6,38.2,29.96,South,178,0.0,1.0,81,0.00,,---,0.00,0.00,VWS V14.01,2013-10-21 09:03:00,
2013-10-21 05:08:00,43.4,38.0,29.95,South,178,0.0,0.0,81,0.00,,---,0.00,0.00,VWS V14.01,2013-10-21 09:08:00,
2013-10-21 05:13:00,43.2,37.8,29.95,South,178,0.0,0.0,81,0.00,,---,0.00,0.00,VWS V14.01,2013-10-21 09:13:00,
2013-10-21 05:18:00,43.0,37.9,29.95,South,178,0.0,3.0,82,0.00,,---,0.00,0.00,VWS V14.01,2013-10-21 09:18:00,
2013-10-21 05:23:00,43.2,38.4,29.95,South,178,0.0,4.0,83,0.00,,---,0.00,0.00,VWS V14.01,2013-10-21 09:23:00,
2013-10-21 05:28:00,43.6,38.8,29.95,South,178,0.0,2.0,83,0.00,,---,0.00,0.00,VWS V14.01,2013-10-21 09:28:00,
2013-10-21 05:33:00,43.8,38.7,29.95,South,177,0.0,4.0,82,0.00,,---,0.00,0.00,VWS V14.01,2013-10-21 09:33:00,
2013-10-21 05:39:00,44.2,38.8,29.95,South,175,2.0,4.0,81,0.00,,---,0.00,0.00,VWS V14.01,2013-10-21 09:39:00,
2013-10-21 05:44:00,44.5,39.0,29.95,South,173,2.0,5.0,81,0.00,,---,0.00,0.00,VWS V14.01,2013-10-21 09:44:00,
2013-10-21 05:49:00,44.7,38.9,29.95,South,176,2.0,5.0,80,0.00,,---,0.00,0.00,VWS V14.01,2013-10-21 09:49:00,
2013-10-21 05:54:00,45.0,38.9,29.95,South,175,3.0,6.0,79,0.00,,---,0.00,0.00,VWS V14.01,2013-10-21 09:54:00,
2013-10-21 05:59:00,45.2,39.1,29.95,South,178,1.0,5.0,79,0.00,,---,0.00,0.00,VWS V14.01,2013-10-21 09:59:00,
2013-10-21 06:04:00,45.5,39.0,29.95,South,175,0.0,5.0,78,0.00,,---,0.00,0.00,VWS V14.01,2013-10-21 10:04:00,
2013-10-21 06:09:00,45.8,39.3,29.95,South,178,1.0,7.0,78,0.00,,---,0.00,0.00,VWS V14.01,2013-10-21 10:09:00,
2013-10-21 06:14:00,45.9,39.1,29.95,South,171,2.0,6.0,77,0.00,,---,0.00,0.00,VWS V14.01,2013-10-21 10:14:00,
2013-10-21 06:19:00,46.1,39.3,29.96,South,169,4.0,5.0,77,0.00,,---,0.00,0.00,VWS V14.01,2013-10-21 10:19:00,
2013-10-21 06:24:00,46.2,39.1,29.96,South,173,3.0,6.0,76,0.00,,---,0.00,0.00,VWS V14.01,2013-10-21 10:24:00,
2013-10-21 06:29:00,46.2,39.1,29.96,SSE,165,2.0,9.0,76,0.00,,---,0.00,0.00,VWS V14.01,2013-10-21 10:29:00,
2013-10-21 06:34:00,46.3,39.2,29.96,South,182,2.0,4.0,76,0.00,,---,0.00,0.00,VWS V14.01,2013-10-21 10:34:00,
2013-10-21 06:39:00,46.3,39.2,29.96,SSE,165,0.0,6.0,76,0.00,,---,0.00,0.00,VWS V14.01,2013-10-21 10:39:00,
2013-10-21 06:44:00,46.3,38.8,29.96,SSE,164,1.0,5.0,75,0.00,,---,0.00,0.00,VWS V14.01,2013-10-21 10:44:00,
2013-10-21 06:49:00,46.3,38.8,29.96,South,171,3.0,6.0,75,0.00,,---,0.00,0.00,VWS V14.01,2013-10-21 10:49:00,
2013-10-21 06:54:00,46.4,38.9,29.96,SSE,168,1.0,5.0,75,0.00,,---,0.00,0.00,VWS V14.01,2013-10-21 10:54:00,
2013-10-21 06:59:00,46.4,38.9,29.95,South,186,1.0,6.0,75,0.00,,---,0.00,0.00,VWS V14.01,2013-10-21 10:59:00,
2013-10-21 07:04:00,46.3,38.8,29.95,South,175,2.0,4.0,75,0.00,,---,0.00,0.00,VWS V14.01,2013-10-21 11:04:00,
2013-10-21 07:09:00,46.3,38.8,29.95,South,177,0.0,4.0,75,0.00,,---,0.00,0.00,VWS V14.01,2013-10-21 11:09:00,
2013-10-21 07:14:00,46.3,38.8,29.95,South,170,0.0,6.0,75,0.00,,---,0.00,0.00,VWS V14.01,2013-10-21 11:14:00,
2013-10-21 07:19:00,46.3,38.8,29.95,South,190,1.0,7.0,75,0.00,,---,0.00,0.00,VWS V14.01,2013-10-21 11:19:00,
2013-10-21 07:24:00,46.3,38.8,29.95,South,180,1.0,7.0,75,0.00,,---,0.00,0.00,VWS V14.01,2013-10-21 11:24:00,
2013-10-21 07:29:00,46.3,38.8,29.95,South,182,1.0,5.0,75,0.00,,---,0.00,0.00,VWS V14.01,2013-10-21 11:29:00,
2013-10-21 07:34:00,46.4,38.9,29.95,South,182,0.0,5.0,75,0.00,,---,0.00,0.00,VWS V14.01,2013-10-21 11:34:00,
2013-10-21 07:39:00,46.4,38.9,29.95,SSW,202,2.0,5.0,75,0.00,,---,0.00,0.00,VWS V14.01,2013-10-21 11:39:00,
2013-10-21 07:44:00,46.3,38.5,29.95,SSW,202,1.0,3.0,74,0.00,,---,0.00,0.00,VWS V14.01,2013-10-21 11:44:00,
2013-10-21 07:49:00,46.3,38.5,29.95,SSW,199,4.0,5.0,74,0.00,,---,0.00,5.00,VWS V14.01,2013-10-21 11:49:00,
2013-10-21 07:54:00,46.3,38.5,29.95,SSW,209,0.0,6.0,74,0.00,,---,0.00,9.00,VWS V14.01,2013-10-21 11:54:00,
2013-10-21 07:59:00,46.2,38.4,29.95,SSW,209,1.0,2.0,74,0.00,,---,0.00,11.00,VWS V14.01,2013-10-21 11:59:00,
2013-10-21 08:04:00,46.2,38.4,29.95,SSW,209,1.0,3.0,74,0.00,,---,0.00,12.00,VWS V14.01,2013-10-21 12:04:00,
2013-10-21 08:09:00,46.1,38.3,29.95,SSW,209,0.0,2.0,74,0.00,,---,0.00,16.00,VWS V14.01,2013-10-21 12:09:00,
2013-10-21 08:14:00,46.0,38.5,29.95,SSW,209,0.0,0.0,75,0.00,,---,0.00,18.00,VWS V14.01,2013-10-21 12:14:00,
2013-10-21 08:19:00,45.9,38.4,29.95,SSW,209,0.0,0.0,75,0.00,,---,0.00,19.00,VWS V14.01,2013-10-21 12:19:00,
2013-10-21 08:24:00,45.7,38.2,29.95,SSW,209,0.0,1.0,75,0.00,,---,0.00,21.00,VWS V14.01,2013-10-21 12:24:00,
2013-10-21 08:29:00,45.5,38.4,29.95,SSW,209,0.0,4.0,76,0.00,,---,0.00,23.00,VWS V14.01,2013-10-21 12:29:00,
2013-10-21 08:34:00,45.3,38.2,29.95,SSW,207,2.0,4.0,76,0.00,,---,0.00,25.00,VWS V14.01,2013-10-21 12:34:00,
2013-10-21 08:39:00,45.3,38.5,29.96,SSW,207,0.0,2.0,77,0.00,,---,0.00,26.00,VWS V14.01,2013-10-21 12:39:00,
2013-10-21 08:44:00,45.3,38.5,29.96,SSW,207,1.0,1.0,77,0.00,,---,0.00,26.00,VWS V14.01,2013-10-21 12:44:00,
2013-10-21 08:49:00,45.5,39.0,29.96,SSW,213,0.0,6.0,78,0.00,,---,0.00,37.00,VWS V14.01,2013-10-21 12:49:00,
2013-10-21 08:54:00,45.7,39.2,29.96,SSW,211,3.0,6.0,78,0.00,,---,0.00,47.00,VWS V14.01,2013-10-21 12:54:00,
2013-10-21 08:59:00,46.1,39.3,29.96,SW,215,2.0,6.0,77,0.00,,---,0.00,70.00,VWS V14.01,2013-10-21 12:59:00,
2013-10-21 09:04:00,46.5,39.7,29.96,SW,215,0.0,4.0,77,0.00,,---,0.00,58.00,VWS V14.01,2013-10-21 13:04:00,
2013-10-21 09:09:00,47.0,39.8,29.96,SSW,207,2.0,6.0,76,0.00,,---,0.00,53.00,VWS V14.01,2013-10-21 13:09:00,
2013-10-21 09:14:00,47.6,40.4,29.96,SSW,200,1.0,9.0,76,0.00,,---,0.00,132.00,VWS V14.01,2013-10-21 13:14:00,
2013-10-21 09:19:00,48.0,40.5,29.96,SSW,198,3.0,5.0,75,0.00,,---,0.00,190.00,VWS V14.01,2013-10-21 13:19:00,
2013-10-21 09:24:00,48.5,40.6,29.96,South,188,0.0,10.0,74,0.00,,---,0.00,213.00,VWS V14.01,2013-10-21 13:24:00,
2013-10-21 09:29:00,49.0,41.1,29.96,South,189,1.0,7.0,74,0.00,,---,0.00,230.00,VWS V14.01,2013-10-21 13:29:00,
2013-10-21 09:34:00,49.6,41.3,29.96,SSW,207,8.0,8.0,73,0.00,,---,0.00,248.00,VWS V14.01,2013-10-21 13:34:00,
2013-10-21 09:39:00,50.0,41.3,29.96,SSW,192,5.0,9.0,72,0.00,,---,0.00,264.00,VWS V14.01,2013-10-21 13:39:00,
2013-10-21 09:44:00,50.4,41.4,29.95,South,190,2.0,7.0,71,0.00,,---,0.00,276.00,VWS V14.01,2013-10-21 13:44:00,
2013-10-21 09:49:00,50.9,41.8,29.95,SSW,197,6.0,8.0,71,0.00,,---,0.00,290.00,VWS V14.01,2013-10-21 13:49:00,
2013-10-21 09:54:00,51.3,41.9,29.95,SSW,198,7.0,11.0,70,0.00,,---,0.00,304.00,VWS V14.01,2013-10-21 13:54:00,
2013-10-21 09:59:00,51.7,41.9,29.95,South,191,0.0,11.0,69,0.00,,---,0.00,318.00,VWS V14.01,2013-10-21 13:59:00,
2013-10-21 10:04:00,52.0,42.5,29.95,South,177,4.0,9.0,70,0.00,,---,0.00,332.00,VWS V14.01,2013-10-21 14:04:00,
2013-10-21 10:09:00,52.4,42.2,29.95,WSW,247,11.0,12.0,68,0.00,,---,0.00,346.00,VWS V14.01,2013-10-21 14:09:00,
2013-10-21 10:14:00,52.7,42.5,29.95,South,183,4.0,11.0,68,0.00,,---,0.00,359.00,VWS V14.01,2013-10-21 14:14:00,
2013-10-21 10:19:00,53.0,42.3,29.95,SW,227,5.0,10.0,67,0.00,,---,0.00,373.00,VWS V14.01,2013-10-21 14:19:00,
2013-10-21 10:25:00,53.2,42.5,29.95,SSW,203,10.0,14.0,67,0.00,,---,0.00,385.00,VWS V14.01,2013-10-21 14:25:00,
2013-10-21 10:30:00,53.4,42.7,29.95,SW,222,7.0,10.0,67,0.00,,---,0.00,396.00,VWS V14.01,2013-10-21 14:30:00,
2013-10-21 10:35:00,53.7,43.0,29.95,SW,214,4.0,9.0,67,0.00,,---,0.00,410.00,VWS V14.01,2013-10-21 14:35:00,
2013-10-21 10:40:00,54.0,43.3,29.94,SW,215,6.0,13.0,67,0.00,,---,0.00,422.00,VWS V14.01,2013-10-21 14:40:00,
2013-10-21 10:45:00,54.1,43.0,29.94,SW,222,4.0,14.0,66,0.00,,---,0.00,434.00,VWS V14.01,2013-10-21 14:45:00,
2013-10-21 10:49:00,54.3,43.2,29.95,SW,234,8.0,11.0,66,0.00,,---,0.00,445.00,VWS V14.01,2013-10-21 14:49:00,
2013-10-21 10:54:00,54.5,43.4,29.95,WSW,248,4.0,12.0,66,0.00,,---,0.00,457.00,VWS V14.01,2013-10-21 14:54:00,
2013-10-21 11:00:00,54.7,43.2,29.95,SSW,193,1.0,13.0,65,0.00,,---,0.00,466.00,VWS V14.01,2013-10-21 15:00:00,
2013-10-21 11:05:00,55.0,43.9,29.95,SW,231,5.0,13.0,66,0.00,,---,0.00,478.00,VWS V14.01,2013-10-21 15:05:00,
2013-10-21 11:10:00,55.2,43.7,29.94,SW,221,10.0,16.0,65,0.00,,---,0.00,489.00,VWS V14.01,2013-10-21 15:10:00,
2013-10-21 11:15:00,55.4,43.8,29.94,SW,219,4.0,14.0,65,0.00,,---,0.00,499.00,VWS V14.01,2013-10-21 15:15:00,
2013-10-21 11:20:00,55.7,44.5,29.94,WSW,240,13.0,13.0,66,0.00,,---,0.00,510.00,VWS V14.01,2013-10-21 15:20:00,
2013-10-21 11:25:00,56.0,44.4,29.93,SSW,211,5.0,5.0,65,0.00,,---,0.00,519.00,VWS V14.01,2013-10-21 15:25:00,
2013-10-21 11:30:00,56.3,44.7,29.93,SW,226,6.0,11.0,65,0.00,,---,0.00,526.00,VWS V14.01,2013-10-21 15:30:00,
2013-10-21 11:35:00,56.6,44.6,29.93,SSE,167,3.0,6.0,64,0.00,,---,0.00,536.00,VWS V14.01,2013-10-21 15:35:00,
2013-10-21 11:40:00,57.1,44.6,29.93,SW,229,12.0,12.0,63,0.00,,---,0.00,545.00,VWS V14.01,2013-10-21 15:40:00,
2013-10-21 11:45:00,57.5,44.6,29.93,WSW,250,12.0,12.0,62,0.00,,---,0.00,554.00,VWS V14.01,2013-10-21 15:45:00,
2013-10-21 11:50:00,57.9,45.0,29.92,SW,230,6.0,7.0,62,0.00,,---,0.00,563.00,VWS V14.01,2013-10-21 15:50:00,
2013-10-21 11:55:00,58.2,44.4,29.92,SW,232,5.0,5.0,60,0.00,,---,0.00,570.00,VWS V14.01,2013-10-21 15:55:00,
2013-10-21 12:00:00,58.5,44.7,29.92,WSW,246,7.0,7.0,60,0.00,,---,0.00,578.00,VWS V14.01,2013-10-21 16:00:00,
2013-10-21 12:05:00,58.7,45.3,29.92,SSW,213,8.0,10.0,61,0.00,,---,0.00,591.00,VWS V14.01,2013-10-21 16:05:00,
2013-10-21 12:10:00,59.1,44.8,29.92,SSW,195,9.0,10.0,59,0.00,,---,0.00,606.00,VWS V14.01,2013-10-21 16:10:00,
2013-10-21 12:15:00,59.4,45.5,29.91,SW,233,9.0,9.0,60,0.00,,---,0.00,563.00,VWS V14.01,2013-10-21 16:15:00,
2013-10-21 12:20:00,59.6,44.8,29.91,South,173,4.0,9.0,58,0.00,,---,0.00,601.00,VWS V14.01,2013-10-21 16:20:00,
2013-10-21 12:25:00,59.8,45.0,29.91,SW,229,13.0,15.0,58,0.00,,---,0.00,621.00,VWS V14.01,2013-10-21 16:25:00,
2013-10-21 12:30:00,59.9,45.1,29.91,WSW,244,7.0,8.0,58,0.00,,---,0.00,613.00,VWS V14.01,2013-10-21 16:30:00,
2013-10-21 12:35:00,60.1,44.8,29.91,SSW,211,3.0,6.0,57,0.00,,---,0.00,613.00,VWS V14.01,2013-10-21 16:35:00,
2013-10-21 12:40:00,60.2,44.9,29.91,SSW,210,4.0,5.0,57,0.00,,---,0.00,613.00,VWS V14.01,2013-10-21 16:40:00,
2013-10-21 12:45:00,60.5,45.2,29.91,SSW,194,6.0,12.0,57,0.00,,---,0.00,636.00,VWS V14.01,2013-10-21 16:45:00,
2013-10-21 12:50:00,60.8,46.0,29.91,South,183,5.0,10.0,58,0.00,,---,0.00,654.00,VWS V14.01,2013-10-21 16:50:00,
2013-10-21 12:55:00,61.0,44.7,29.90,SW,224,5.0,5.0,55,0.00,,---,0.00,657.00,VWS V14.01,2013-10-21 16:55:00,
2013-10-21 13:00:00,61.1,44.8,29.90,SSW,209,8.0,8.0,55,0.00,,---,0.00,661.00,VWS V14.01,2013-10-21 17:00:00,
2013-10-21 13:05:00,61.4,46.0,29.90,SW,229,6.0,6.0,57,0.00,,---,0.00,566.00,VWS V14.01,2013-10-21 17:05:00,
2013-10-21 13:10:00,61.7,45.4,29.89,SW,231,7.0,13.0,55,0.00,,---,0.00,645.00,VWS V14.01,2013-10-21 17:10:00,
2013-10-21 13:15:00,61.8,44.5,29.89,SW,228,5.0,7.0,53,0.00,,---,0.00,652.00,VWS V14.01,2013-10-21 17:15:00,
2013-10-21 13:20:00,61.8,45.0,29.89,South,186,9.0,14.0,54,0.00,,---,0.00,650.00,VWS V14.01,2013-10-21 17:20:00,
2013-10-21 13:25:00,61.9,45.1,29.89,SSW,193,7.0,12.0,54,0.00,,---,0.00,642.00,VWS V14.01,2013-10-21 17:25:00,
2013-10-21 13:30:00,62.1,45.3,29.88,SW,223,6.0,6.0,54,0.00,,---,0.00,657.00,VWS V14.01,2013-10-21 17:30:00,
2013-10-21 13:35:00,62.4,44.6,29.88,SW,221,4.0,7.0,52,0.00,,---,0.00,682.00,VWS V14.01,2013-10-21 17:35:00,
2013-10-21 13:40:00,62.6,45.7,29.88,SW,217,3.0,4.0,54,0.00,,---,0.00,545.00,VWS V14.01,2013-10-21 17:40:00,
2013-10-21 13:45:00,62.8,44.9,29.88,WSW,240,6.0,7.0,52,0.00,,---,0.00,679.00,VWS V14.01,2013-10-21 17:45:00,
2013-10-21 13:50:00,62.9,43.5,29.87,WSW,246,9.0,9.0,49,0.00,,---,0.00,603.00,VWS V14.01,2013-10-21 17:50:00,
2013-10-21 13:55:00,62.9,44.0,29.87,SW,229,14.0,14.0,50,0.00,,---,0.00,605.00,VWS V14.01,2013-10-21 17:55:00,
2013-10-21 14:00:00,62.8,43.4,29.87,SSW,209,3.0,17.0,49,0.00,,---,0.00,621.00,VWS V14.01,2013-10-21 18:00:00,
2013-10-21 14:05:00,62.8,44.4,29.87,SW,226,11.0,12.0,51,0.00,,---,0.00,587.00,VWS V14.01,2013-10-21 18:05:00,
2013-10-21 14:10:00,63.0,44.1,29.87,SW,228,11.0,15.0,50,0.00,,---,0.00,624.00,VWS V14.01,2013-10-21 18:10:00,
2013-10-21 14:15:00,63.1,44.7,29.87,SW,233,6.0,13.0,51,0.00,,---,0.00,566.00,VWS V14.01,2013-10-21 18:15:00,
2013-10-21 14:20:00,63.1,44.7,29.86,SW,229,11.0,15.0,51,0.00,,---,0.00,533.00,VWS V14.01,2013-10-21 18:20:00,
2013-10-21 14:25:00,63.1,44.2,29.86,SW,227,15.0,16.0,50,0.00,,---,0.00,594.00,VWS V14.01,2013-10-21 18:25:00,
2013-10-21 14:30:00,63.1,44.7,29.85,SW,223,13.0,16.0,51,0.00,,---,0.00,592.00,VWS V14.01,2013-10-21 18:30:00,
2013-10-21 14:35:00,63.2,44.8,29.85,SSW,208,7.0,10.0,51,0.00,,---,0.00,606.00,VWS V14.01,2013-10-21 18:35:00,
2013-10-21 14:40:00,63.4,45.5,29.84,South,170,4.0,7.0,52,0.00,,---,0.00,587.00,VWS V14.01,2013-10-21 18:40:00,
2013-10-21 14:45:00,63.6,45.2,29.84,South,187,3.0,10.0,51,0.00,,---,0.00,584.00,VWS V14.01,2013-10-21 18:45:00,
2013-10-21 14:50:00,63.8,45.3,29.84,South,175,4.0,6.0,51,0.00,,---,0.00,425.00,VWS V14.01,2013-10-21 18:50:00,
2013-10-21 14:55:00,64.0,44.5,29.83,SW,229,5.0,11.0,49,0.00,,---,0.00,552.00,VWS V14.01,2013-10-21 18:55:00,
2013-10-21 15:00:00,64.1,45.1,29.84,WSW,247,6.0,10.0,50,0.00,,---,0.00,552.00,VWS V14.01,2013-10-21 19:00:00,
2013-10-21 15:05:00,64.1,44.6,29.83,SSW,210,2.0,6.0,49,0.00,,---,0.00,517.00,VWS V14.01,2013-10-21 19:05:00,
2013-10-21 15:10:00,64.1,44.6,29.83,South,190,4.0,16.0,49,0.00,,---,0.00,394.00,VWS V14.01,2013-10-21 19:10:00,
2013-10-21 15:15:00,64.0,45.0,29.83,SSW,200,9.0,11.0,50,0.00,,---,0.00,455.00,VWS V14.01,2013-10-21 19:15:00,
2013-10-21 15:20:00,64.1,45.1,29.83,SW,214,11.0,11.0,50,0.00,,---,0.00,462.00,VWS V14.01,2013-10-21 19:20:00,
2013-10-21 15:25:00,64.2,44.7,29.82,SW,225,13.0,16.0,49,0.00,,---,0.00,527.00,VWS V14.01,2013-10-21 19:25:00,
2013-10-21 15:30:00,64.4,44.8,29.83,West,269,11.0,15.0,49,0.00,,---,0.00,513.00,VWS V14.01,2013-10-21 19:30:00,
2013-10-21 15:35:00,64.5,44.4,29.82,WSW,246,18.0,18.0,48,0.00,,---,0.00,508.00,VWS V14.01,2013-10-21 19:35:00,
2013-10-21 15:40:00,64.6,43.4,29.82,SSW,205,13.0,17.0,46,0.00,,---,0.00,492.00,VWS V14.01,2013-10-21 19:40:00,
2013-10-21 15:45:00,64.7,44.6,29.82,SSW,208,17.0,17.0,48,0.00,,---,0.00,480.00,VWS V14.01,2013-10-21 19:45:00,
2013-10-21 15:50:00,64.9,44.2,29.82,South,170,3.0,15.0,47,0.00,,---,0.00,478.00,VWS V14.01,2013-10-21 19:50:00,
2013-10-21 15:55:00,65.1,44.9,29.81,SSW,204,8.0,11.0,48,0.00,,---,0.00,466.00,VWS V14.01,2013-10-21 19:55:00,
2013-10-21 16:00:00,65.2,44.5,29.81,SSW,194,6.0,7.0,47,0.00,,---,0.00,466.00,VWS V14.01,2013-10-21 20:00:00,
2013-10-21 16:05:00,65.3,44.6,29.82,South,188,12.0,18.0,47,0.00,,---,0.00,410.00,VWS V14.01,2013-10-21 20:05:00,
2013-10-21 16:11:00,65.3,44.6,29.82,SW,220,3.0,10.0,47,0.00,,---,0.00,279.00,VWS V14.01,2013-10-21 20:11:00,
2013-10-21 16:16:00,65.3,44.6,29.81,SW,219,10.0,10.0,47,0.00,,---,0.00,410.00,VWS V14.01,2013-10-21 20:16:00,
2013-10-21 16:21:00,65.3,42.2,29.81,SW,231,15.0,15.0,43,0.00,,---,0.00,359.00,VWS V14.01,2013-10-21 20:21:00,
2013-10-21 16:26:00,65.3,41.6,29.81,WSW,241,10.0,12.0,42,0.00,,---,0.00,394.00,VWS V14.01,2013-10-21 20:26:00,
2013-10-21 16:31:00,65.3,41.0,29.81,SSW,199,7.0,19.0,41,0.00,,---,0.00,388.00,VWS V14.01,2013-10-21 20:31:00,
2013-10-21 16:36:00,65.3,42.2,29.81,SW,214,9.0,11.0,43,0.00,,---,0.00,357.00,VWS V14.01,2013-10-21 20:36:00,
2013-10-21 16:41:00,65.3,42.2,29.81,SW,234,12.0,18.0,43,0.00,,---,0.00,287.00,VWS V14.01,2013-10-21 20:41:00,
2013-10-21 16:46:00,65.0,42.0,29.81,SW,223,6.0,21.0,43,0.00,,---,0.00,172.00,VWS V14.01,2013-10-21 20:46:00,
2013-10-21 16:51:00,64.7,42.9,29.81,SW,223,5.0,8.0,45,0.00,,---,0.00,294.00,VWS V14.01,2013-10-21 20:51:00,
2013-10-21 16:56:00,64.5,42.7,29.81,SW,217,10.0,11.0,45,0.00,,---,0.00,271.00,VWS V14.01,2013-10-21 20:56:00,
2013-10-21 17:01:00,64.3,41.9,29.81,SSW,207,6.0,10.0,44,0.00,,---,0.00,320.00,VWS V14.01,2013-10-21 21:01:00,
2013-10-21 17:06:00,64.3,43.1,29.81,SSW,196,5.0,7.0,46,0.00,,---,0.00,120.00,VWS V14.01,2013-10-21 21:06:00,
2013-10-21 17:11:00,64.1,42.3,29.81,SSW,206,7.0,14.0,45,0.00,,---,0.00,86.00,VWS V14.01,2013-10-21 21:11:00,
2013-10-21 17:16:00,63.8,42.6,29.81,WSW,238,14.0,14.0,46,0.00,,---,0.00,102.00,VWS V14.01,2013-10-21 21:16:00,
2013-10-21 17:21:00,63.6,42.5,29.81,SSW,213,3.0,6.0,46,0.00,,---,0.00,93.00,VWS V14.01,2013-10-21 21:21:00,
2013-10-21 17:26:00,63.4,42.3,29.81,SSW,206,7.0,11.0,46,0.00,,---,0.00,100.00,VWS V14.01,2013-10-21 21:26:00,
2013-10-21 17:31:00,63.4,42.3,29.81,WSW,246,3.0,13.0,46,0.00,,---,0.00,114.00,VWS V14.01,2013-10-21 21:31:00,
2013-10-21 17:36:00,63.3,41.6,29.81,SSW,196,1.0,12.0,45,0.00,,---,0.00,113.00,VWS V14.01,2013-10-21 21:36:00,
2013-10-21 17:41:00,63.1,42.0,29.81,SW,223,4.0,11.0,46,0.00,,---,0.00,95.00,VWS V14.01,2013-10-21 21:41:00,
2013-10-21 17:46:00,62.9,41.8,29.81,SW,223,4.0,7.0,46,0.00,,---,0.00,47.00,VWS V14.01,2013-10-21 21:46:00,
2013-10-21 17:51:00,62.6,42.1,29.81,SW,236,10.0,10.0,47,0.00,,---,0.00,53.00,VWS V14.01,2013-10-21 21:51:00,
2013-10-21 17:56:00,62.4,41.9,29.82,SW,217,7.0,11.0,47,0.00,,---,0.00,23.00,VWS V14.01,2013-10-21 21:56:00,
2013-10-21 18:01:00,62.2,41.7,29.81,South,172,9.0,11.0,47,0.00,,---,0.00,18.00,VWS V14.01,2013-10-21 22:01:00,
2013-10-21 18:06:00,62.1,42.2,29.81,SSW,206,3.0,11.0,48,0.00,,---,0.00,21.00,VWS V14.01,2013-10-21 22:06:00,
2013-10-21 18:11:00,61.9,42.0,29.81,SSW,194,4.0,6.0,48,0.00,,---,0.00,25.00,VWS V14.01,2013-10-21 22:11:00,
2013-10-21 18:16:00,61.8,42.5,29.81,SW,221,3.0,6.0,49,0.00,,---,0.00,32.00,VWS V14.01,2013-10-21 22:16:00,
2013-10-21 18:21:00,61.7,42.4,29.81,South,191,3.0,9.0,49,0.00,,---,0.00,16.00,VWS V14.01,2013-10-21 22:21:00,
2013-10-21 18:26:00,61.5,42.2,29.82,SSW,194,5.0,10.0,49,0.00,,---,0.00,7.00,VWS V14.01,2013-10-21 22:26:00,
2013-10-21 18:31:00,61.4,42.1,29.82,SW,215,2.0,5.0,49,0.00,,---,0.00,5.00,VWS V14.01,2013-10-21 22:31:00,
2013-10-21 18:36:00,61.3,42.5,29.82,SW,215,2.0,8.0,50,0.00,,---,0.00,0.00,VWS V14.01,2013-10-21 22:36:00,
2013-10-21 18:41:00,61.3,42.5,29.82,SSW,209,0.0,4.0,50,0.00,,---,0.00,0.00,VWS V14.01,2013-10-21 22:41:00,
2013-10-21 18:46:00,61.2,43.0,29.82,SSW,208,2.0,3.0,51,0.00,,---,0.00,0.00,VWS V14.01,2013-10-21 22:46:00,
2013-10-21 18:51:00,61.1,42.8,29.82,SSW,202,2.0,7.0,51,0.00,,---,0.00,0.00,VWS V14.01,2013-10-21 22:51:00,
2013-10-21 18:56:00,60.9,42.7,29.82,SW,216,2.0,10.0,51,0.00,,---,0.00,0.00,VWS V14.01,2013-10-21 22:56:00,
2013-10-21 19:01:00,60.8,43.1,29.82,SW,229,2.0,9.0,52,0.00,,---,0.00,0.00,VWS V14.01,2013-10-21 23:01:00,
2013-10-21 19:06:00,60.7,43.0,29.82,SW,226,2.0,4.0,52,0.00,,---,0.00,0.00,VWS V14.01,2013-10-21 23:06:00,
2013-10-21 19:11:00,60.6,42.9,29.82,SSW,198,4.0,5.0,52,0.00,,---,0.00,0.00,VWS V14.01,2013-10-21 23:11:00,
2013-10-21 19:16:00,60.5,43.3,29.82,SSW,199,0.0,0.0,53,0.00,,---,0.00,0.00,VWS V14.01,2013-10-21 23:16:00,
2013-10-21 19:21:00,60.4,43.2,29.82,SW,220,1.0,4.0,53,0.00,,---,0.00,0.00,VWS V14.01,2013-10-21 23:21:00,
2013-10-21 19:26:00,60.3,43.1,29.82,SSW,209,3.0,7.0,53,0.00,,---,0.00,0.00,VWS V14.01,2013-10-21 23:26:00,
2013-10-21 19:31:00,60.2,43.0,29.82,South,191,1.0,7.0,53,0.00,,---,0.00,0.00,VWS V14.01,2013-10-21 23:31:00,
2013-10-21 19:36:00,60.1,42.9,29.82,South,191,0.0,5.0,53,0.00,,---,0.00,0.00,VWS V14.01,2013-10-21 23:36:00,
2013-10-21 19:41:00,60.0,42.8,29.82,SSW,192,1.0,4.0,53,0.00,,---,0.00,0.00,VWS V14.01,2013-10-21 23:41:00,
2013-10-21 19:46:00,59.9,42.7,29.82,SSW,192,1.0,4.0,53,0.00,,---,0.00,0.00,VWS V14.01,2013-10-21 23:46:00,
2013-10-21 19:51:00,59.8,43.1,29.82,SSW,198,2.0,4.0,54,0.00,,---,0.00,0.00,VWS V14.01,2013-10-21 23:51:00,
2013-10-21 19:56:00,59.8,43.1,29.82,SSW,209,0.0,5.0,54,0.00,,---,0.00,0.00,VWS V14.01,2013-10-21 23:56:00,
2013-10-21 20:01:00,59.7,43.0,29.82,SSW,197,1.0,3.0,54,0.00,,---,0.00,0.00,VWS V14.01,2013-10-22 00:01:00,
2013-10-21 20:06:00,59.6,43.0,29.82,SSW,197,1.0,3.0,54,0.00,,---,0.00,0.00,VWS V14.01,2013-10-22 00:06:00,
2013-10-21 20:11:00,59.5,42.9,29.81,SW,218,1.0,4.0,54,0.00,,---,0.00,0.00,VWS V14.01,2013-10-22 00:11:00,
2013-10-21 20:16:00,59.4,43.2,29.82,SW,214,3.0,3.0,55,0.00,,---,0.00,0.00,VWS V14.01,2013-10-22 00:16:00,
2013-10-21 20:21:00,59.2,43.1,29.81,SW,214,0.0,2.0,55,0.00,,---,0.00,0.00,VWS V14.01,2013-10-22 00:21:00,
2013-10-21 20:26:00,59.1,43.0,29.81,SW,217,1.0,3.0,55,0.00,,---,0.00,0.00,VWS V14.01,2013-10-22 00:26:00,
2013-10-21 20:31:00,58.9,43.2,29.81,SW,217,2.0,2.0,56,0.00,,---,0.00,0.00,VWS V14.01,2013-10-22 00:31:00,
2013-10-21 20:36:00,58.8,43.2,29.81,South,190,3.0,5.0,56,0.00,,---,0.00,0.00,VWS V14.01,2013-10-22 00:36:00,
2013-10-21 20:42:00,58.7,43.1,29.81,SW,215,2.0,5.0,56,0.00,,---,0.00,0.00,VWS V14.01,2013-10-22 00:42:00,
2013-10-21 20:47:00,58.6,43.0,29.81,SSW,209,6.0,6.0,56,0.00,,---,0.00,0.00,VWS V14.01,2013-10-22 00:47:00,
2013-10-21 20:52:00,58.6,43.0,29.81,South,182,4.0,5.0,56,0.00,,---,0.00,0.00,VWS V14.01,2013-10-22 00:52:00,
2013-10-21 20:57:00,58.6,43.0,29.81,SSW,200,0.0,5.0,56,0.00,,---,0.00,0.00,VWS V14.01,2013-10-22 00:57:00,
2013-10-21 21:02:00,58.6,43.0,29.80,SW,217,0.0,6.0,56,0.00,,---,0.00,0.00,VWS V14.01,2013-10-22 01:02:00,
2013-10-21 21:07:00,58.6,43.4,29.80,SSW,196,5.0,7.0,57,0.00,,---,0.00,0.00,VWS V14.01,2013-10-22 01:07:00,
2013-10-21 21:12:00,58.5,43.3,29.80,SSW,193,0.0,9.0,57,0.00,,---,0.00,0.00,VWS V14.01,2013-10-22 01:12:00,
2013-10-21 21:17:00,58.5,43.3,29.80,SW,223,5.0,10.0,57,0.00,,---,0.00,0.00,VWS V14.01,2013-10-22 01:17:00,
2013-10-21 21:22:00,58.5,43.3,29.80,SSW,211,5.0,11.0,57,0.00,,---,0.00,0.00,VWS V14.01,2013-10-22 01:22:00,
2013-10-21 21:27:00,58.6,43.4,29.80,SSW,202,3.0,12.0,57,0.00,,---,0.00,0.00,VWS V14.01,2013-10-22 01:27:00,
2013-10-21 21:32:00,58.7,43.5,29.80,SW,225,9.0,10.0,57,0.00,,---,0.00,0.00,VWS V14.01,2013-10-22 01:32:00,
2013-10-21 21:37:00,58.7,43.5,29.81,SW,223,6.0,11.0,57,0.00,,---,0.00,0.00,VWS V14.01,2013-10-22 01:37:00,
2013-10-21 21:42:00,58.8,43.6,29.80,SSW,209,9.0,10.0,57,0.00,,---,0.00,0.00,VWS V14.01,2013-10-22 01:42:00,
2013-10-21 21:47:00,58.9,43.2,29.80,SW,217,7.0,13.0,56,0.00,,---,0.00,0.00,VWS V14.01,2013-10-22 01:47:00,
2013-10-21 21:52:00,58.9,43.2,29.80,SSW,210,7.0,11.0,56,0.00,,---,0.00,0.00,VWS V14.01,2013-10-22 01:52:00,
2013-10-21 21:54:00,59.0,43.3,29.80,SSW,202,7.0,11.0,56,0.00,,---,0.00,0.00,VWS V14.01,2013-10-22 01:54:00,
2013-10-21 21:59:00,59.0,43.8,29.80,SSW,213,5.0,10.0,57,0.00,,---,0.00,0.00,VWS V14.01,2013-10-22 01:59:00,
2013-10-21 22:04:00,58.9,43.7,29.80,SW,220,5.0,8.0,57,0.00,,---,0.00,0.00,VWS V14.01,2013-10-22 02:04:00,
2013-10-21 22:09:00,58.9,43.7,29.80,SW,219,4.0,12.0,57,0.00,,---,0.00,0.00,VWS V14.01,2013-10-22 02:09:00,
2013-10-21 22:14:00,58.8,43.6,29.80,SSW,211,7.0,9.0,57,0.00,,---,0.00,0.00,VWS V14.01,2013-10-22 02:14:00,
2013-10-21 22:19:00,58.7,43.5,29.80,SSW,206,3.0,10.0,57,0.00,,---,0.00,0.00,VWS V14.01,2013-10-22 02:19:00,
2013-10-21 22:24:00,58.6,43.4,29.80,SW,223,5.0,10.0,57,0.00,,---,0.00,0.00,VWS V14.01,2013-10-22 02:24:00,
2013-10-21 22:29:00,58.6,43.4,29.80,SSW,197,10.0,10.0,57,0.00,,---,0.00,0.00,VWS V14.01,2013-10-22 02:29:00,
2013-10-21 22:34:00,58.5,43.3,29.80,SW,232,6.0,9.0,57,0.00,,---,0.00,0.00,VWS V14.01,2013-10-22 02:34:00,
2013-10-21 22:39:00,58.5,43.3,29.80,WSW,238,5.0,9.0,57,0.00,,---,0.00,0.00,VWS V14.01,2013-10-22 02:39:00,
2013-10-21 22:44:00,58.5,43.8,29.80,SW,223,6.0,6.0,58,0.00,,---,0.00,0.00,VWS V14.01,2013-10-22 02:44:00,
2013-10-21 22:49:00,58.4,43.7,29.80,SW,227,7.0,10.0,58,0.00,,---,0.00,0.00,VWS V14.01,2013-10-22 02:49:00,
2013-10-21 22:54:00,58.4,43.7,29.80,SW,217,3.0,7.0,58,0.00,,---,0.00,0.00,VWS V14.01,2013-10-22 02:54:00,
2013-10-21 22:59:00,58.3,44.0,29.80,SW,225,3.0,6.0,59,0.00,,---,0.00,0.00,VWS V14.01,2013-10-22 02:59:00,
2013-10-21 23:04:00,58.2,44.0,29.80,WSW,245,1.0,5.0,59,0.00,,---,0.00,0.00,VWS V14.01,2013-10-22 03:04:00,
2013-10-21 23:09:00,58.1,44.3,29.80,WSW,244,4.0,5.0,60,0.00,,---,0.00,0.00,VWS V14.01,2013-10-22 03:09:00,
2013-10-21 23:14:00,57.8,44.0,29.80,West,266,7.0,7.0,60,0.00,,---,0.00,0.00,VWS V14.01,2013-10-22 03:14:00,
2013-10-21 23:19:00,57.7,45.6,29.80,NW,314,2.0,9.0,64,0.00,,---,0.00,0.00,VWS V14.01,2013-10-22 03:19:00,
2013-10-21 23:24:00,57.3,47.6,29.80,NW,309,1.0,10.0,70,0.00,,---,0.00,0.00,VWS V14.01,2013-10-22 03:24:00,
2013-10-21 23:29:00,56.8,48.2,29.80,WNW,294,4.0,6.0,73,0.00,,---,0.00,0.00,VWS V14.01,2013-10-22 03:29:00,
2013-10-21 23:34:00,56.4,48.2,29.80,WNW,298,2.0,5.0,74,0.00,,---,0.00,0.00,VWS V14.01,2013-10-22 03:34:00,
2013-10-21 23:39:00,56.1,48.7,29.80,WNW,298,3.0,4.0,76,0.00,,---,0.00,0.00,VWS V14.01,2013-10-22 03:39:00,
2013-10-21 23:44:00,55.7,48.6,29.80,NW,306,1.0,5.0,77,0.00,,---,0.00,0.00,VWS V14.01,2013-10-22 03:44:00,
2013-10-21 23:49:00,55.5,48.8,29.80,WNW,300,2.0,3.0,78,0.00,,---,0.00,0.00,VWS V14.01,2013-10-22 03:49:00,
2013-10-21 23:54:00,55.3,48.9,29.80,WNW,282,0.0,4.0,79,0.00,,---,0.00,0.00,VWS V14.01,2013-10-22 03:54:00,
2013-10-21 23:59:00,55.1,48.7,29.80,WNW,284,0.0,4.0,79,0.00,,---,0.00,0.00,VWS V14.01,2013-10-22 03:59:00,